Content
SEND FEEDBACK

Daily
Averages
Monthly
Summary
United States of America

NEW ORLEANS, LOUISIANA


Home > North America > United States > Louisiana
Elevation: 1 foot     Latitude: 29 59N     Longitude: 090 15W

WEATHER
 
SELECT A DAY
Number of Records: 202,915;   Date Range: 1/1/95 - 10/23/14
 
SHARE

PRINT THIS DATA

[ ← Previous Day ]
WEATHER ALMANAC - FEBRUARY 13, 2013
[ Next Day → ]
[ °C ]   °F
Weather ElementAverageHighLow
Temperature51.8 °F57 °F (1:53 am)46.9 °F (10:53 pm)
Dewpoint45.4 °F52 °F (1:53 am)39 °F (11:53 pm)
Humidity79 %89 % (11:53 am)68 % (8:53 pm)
Barometer30.01 in30.09 in (9:53 pm)29.90 in (1:53 am)
Wind Speed9.8 mph15 mph (9:53 am)
Wind Gust31.1 mph (8:53 am)
Weather ElementAverage
Visibility9.9 mi
Wind DirectionWNW (291.9 °)

Weather ElementTotal
Precipitation0.10 in
Heating Degree Days13.1 (Base 65)
Growing Degree Days2 (Base 50)
Averaged from 27 records on February 13, 2013
WEATHER CONDITIONS BREAKOUT
WIND DIRECTION BREAKOUT
WEATHER BY HOUR - FEBRUARY 13, 2013
[ °C ]   °F
Local TimeTemperatureDewpointHumidityBarometerVisibilityWind DirectionWind SpeedGust SpeedPrecipitationEventsConditions
1:53 AM57.0 °F52.0 °F83 %29.90 in10.0 miNW (310°)12.7 mph21.9 mphMostly Cloudy
2:53 AM55.9 °F51.1 °F84 %29.90 in10.0 miNW (320°)11.5 mphScattered Clouds
3:53 AM55.0 °F51.1 °F86 %29.92 in10.0 miNW (310°)11.5 mphScattered Clouds
4:53 AM54.0 °F50.0 °F86 %29.93 in10.0 miNW (320°)10.4 mphScattered Clouds
5:53 AM54.0 °F48.9 °F83 %29.96 in10.0 miWNW (300°)9.2 mphMostly Cloudy
6:53 AM53.1 °F48.9 °F86 %29.97 in10.0 miWNW (290°)8.1 mphMostly Cloudy
7:53 AM55.0 °F48.9 °F80 %29.99 in10.0 miNW (310°)13.8 mphMostly Cloudy
8:53 AM55.0 °F48.9 °F80 %29.99 in10.0 miNW (320°)11.5 mph31.1 mph0.00 inMostly Cloudy
9:53 AM55.0 °F48.0 °F77 %30.00 in10.0 miNW (320°)15.0 mph24.2 mph0.00 inRainLight Rain
10:49 AM53.6 °F46.4 °F77 %30.01 in9.0 miNW (320°)11.5 mph19.6 mph0.00 inRainLight Rain
10:53 AM53.1 °F48.0 °F83 %30.03 in10.0 miWNW (300°)13.8 mph19.6 mph0.00 inRainLight Rain
11:31 AM51.8 °F46.4 °F82 %30.00 in7.0 miNW (310°)6.9 mph0.01 inRainLight Rain
11:53 AM50.0 °F46.9 °F89 %30.04 in10.0 miNW (320°)15.0 mph20.7 mph0.02 inOvercast
12:53 PM48.9 °F45.0 °F86 %30.03 in10.0 miNW (320°)9.2 mph0.04 inRainLight Rain
1:23 PM48.2 °F42.8 °F82 %30.02 in10.0 miNNW (330°)12.7 mph0.01 inRainLight Rain
1:53 PM50.0 °F44.1 °F80 %30.01 in10.0 miNNW (340°)9.2 mph0.02 inRainLight Rain
2:53 PM50.0 °F43.0 °F77 %30.02 in10.0 miNNW (340°)8.1 mph0.00 inMostly Cloudy
3:53 PM51.1 °F43.0 °F74 %30.03 in10.0 miNW (320°)5.8 mphMostly Cloudy
4:30 PM51.8 °F42.8 °F71 %30.00 in10.0 miNorth (350°)5.8 mphMostly Cloudy
4:53 PM51.1 °F44.1 °F77 %30.01 in10.0 miNorth (350°)6.9 mphMostly Cloudy
5:53 PM51.1 °F43.0 °F74 %30.02 in10.0 miNorth (360°)5.8 mphMostly Cloudy
6:53 PM51.1 °F43.0 °F74 %30.02 in10.0 miNorth (10°)6.9 mphMostly Cloudy
7:53 PM50.0 °F41.0 °F71 %30.06 in10.0 miNorth (360°)10.4 mphMostly Cloudy
8:53 PM50.0 °F39.9 °F68 %30.07 in10.0 miNorth (360°)8.1 mphScattered Clouds
9:53 PM48.9 °F39.9 °F71 %30.09 in10.0 miNorth (360°)6.9 mphPartly Cloudy
10:53 PM46.9 °F39.9 °F77 %30.09 in10.0 miNorth (10°)9.2 mphPartly Cloudy
11:53 PM46.9 °F39.0 °F74 %30.07 in10.0 miNNE (20°)9.2 mphScattered Clouds
Hourly data recorded from KMSY, located miles away from New Orleans, Louisiana







STORIES FROM OUR PARTNERS